Time,TemperatureF,DewpointF,PressureIn,WindDirection,WindDirectionDegrees,WindSpeedMPH,WindSpeedGustMPH,Humidity,HourlyPrecipIn,Conditions,Clouds,dailyrainin,SoftwareType,DateUTC
2013-02-28 00:00:00,39.3,36.0,29.60,NW,321,0.0,1.0,88,0.00,,---,0.45,VWS V14.01,2013-02-28 05:00:00,
2013-02-28 00:05:00,39.1,35.8,29.60,NW,321,0.0,1.0,88,0.00,,---,0.00,VWS V14.01,2013-02-28 05:05:00,
2013-02-28 00:10:00,39.0,35.8,29.60,NW,321,0.0,1.0,88,0.00,,---,0.00,VWS V14.01,2013-02-28 05:10:00,
2013-02-28 00:16:00,39.0,36.0,29.60,NW,321,0.0,1.0,89,0.00,,---,0.00,VWS V14.01,2013-02-28 05:16:00,
2013-02-28 00:21:00,39.0,35.8,29.60,NW,321,0.0,1.0,88,0.00,,---,0.00,VWS V14.01,2013-02-28 05:21:00,
2013-02-28 00:26:00,38.9,35.9,29.60,NW,321,0.0,1.0,89,0.00,,---,0.00,VWS V14.01,2013-02-28 05:26:00,
2013-02-28 00:30:00,38.9,35.9,29.58,NW,321,0.0,1.0,89,0.00,,---,0.00,VWS V14.01,2013-02-28 05:30:00,
2013-02-28 00:31:00,38.7,35.7,29.60,NW,321,0.0,0.0,89,0.00,,---,0.00,VWS V14.01,2013-02-28 05:31:00,
2013-02-28 00:36:00,38.6,35.6,29.60,NW,321,0.0,1.0,89,0.00,,---,0.00,VWS V14.01,2013-02-28 05:36:00,
2013-02-28 00:41:00,38.5,35.5,29.60,NW,321,0.0,1.0,89,0.00,,---,0.00,VWS V14.01,2013-02-28 05:41:00,
2013-02-28 00:46:00,38.5,35.5,29.60,NW,321,0.0,1.0,89,0.00,,---,0.00,VWS V14.01,2013-02-28 05:46:00,
2013-02-28 00:51:00,38.6,35.6,29.59,NW,321,0.0,1.0,89,0.00,,---,0.00,VWS V14.01,2013-02-28 05:51:00,
2013-02-28 00:56:00,38.6,35.6,29.59,NW,321,0.0,1.0,89,0.00,,---,0.00,VWS V14.01,2013-02-28 05:56:00,
2013-02-28 01:00:00,38.8,35.8,29.58,NW,321,0.0,2.0,89,0.00,,---,0.00,VWS V14.01,2013-02-28 06:00:00,
2013-02-28 01:01:00,38.6,35.9,29.59,NW,321,0.0,0.0,90,0.00,,---,0.00,VWS V14.01,2013-02-28 06:01:00,
2013-02-28 01:06:00,38.7,36.0,29.59,NW,321,0.0,0.0,90,0.00,,---,0.00,VWS V14.01,2013-02-28 06:06:00,
2013-02-28 01:11:00,38.8,36.1,29.59,NW,321,0.0,0.0,90,0.00,,---,0.00,VWS V14.01,2013-02-28 06:11:00,
2013-02-28 01:16:00,38.9,36.2,29.59,NW,321,0.0,0.0,90,0.00,,---,0.00,VWS V14.01,2013-02-28 06:16:00,
2013-02-28 01:22:00,39.0,36.0,29.59,NW,321,0.0,0.0,89,0.00,,---,0.00,VWS V14.01,2013-02-28 06:22:00,
2013-02-28 01:27:00,39.0,36.0,29.58,NW,321,0.0,0.0,89,0.00,,---,0.00,VWS V14.01,2013-02-28 06:27:00,
2013-02-28 01:32:00,38.8,35.8,29.58,NW,321,0.0,1.0,89,0.00,,---,0.00,VWS V14.01,2013-02-28 06:32:00,
2013-02-28 01:37:00,38.6,35.9,29.58,NW,321,0.0,1.0,90,0.00,,---,0.00,VWS V14.01,2013-02-28 06:37:00,
2013-02-28 01:42:00,38.6,35.9,29.58,NW,321,0.0,1.0,90,0.00,,---,0.00,VWS V14.01,2013-02-28 06:42:00,
2013-02-28 01:47:00,38.7,36.0,29.59,NW,321,0.0,2.0,90,0.00,,---,0.00,VWS V14.01,2013-02-28 06:47:00,
2013-02-28 01:52:00,38.8,36.1,29.58,NW,321,0.0,2.0,90,0.00,,---,0.00,VWS V14.01,2013-02-28 06:52:00,
2013-02-28 01:57:00,38.8,35.8,29.58,NW,321,0.0,2.0,89,0.00,,---,0.00,VWS V14.01,2013-02-28 06:57:00,
2013-02-28 02:00:00,38.4,35.5,29.58,NW,321,0.0,2.0,89,0.00,,---,0.00,VWS V14.01,2013-02-28 07:00:00,
2013-02-28 02:02:00,38.8,35.8,29.58,NW,321,0.0,0.0,89,0.00,,---,0.00,VWS V14.01,2013-02-28 07:02:00,
2013-02-28 02:07:00,38.8,35.8,29.58,NW,321,0.0,0.0,89,0.00,,---,0.00,VWS V14.01,2013-02-28 07:07:00,
2013-02-28 02:12:00,38.8,35.8,29.58,NW,321,1.0,1.0,89,0.00,,---,0.00,VWS V14.01,2013-02-28 07:12:00,
2013-02-28 02:17:00,38.7,35.7,29.58,NW,321,0.0,1.0,89,0.00,,---,0.00,VWS V14.01,2013-02-28 07:17:00,
2013-02-28 02:22:00,38.6,35.6,29.58,NW,321,0.0,1.0,89,0.00,,---,0.00,VWS V14.01,2013-02-28 07:22:00,
2013-02-28 02:28:00,38.7,35.7,29.58,NW,321,1.0,2.0,89,0.00,,---,0.00,VWS V14.01,2013-02-28 07:28:00,
2013-02-28 02:30:00,38.1,35.2,29.58,NW,321,0.0,2.0,89,0.00,,---,0.00,VWS V14.01,2013-02-28 07:30:00,
2013-02-28 02:33:00,38.8,35.8,29.58,NW,321,1.0,1.0,89,0.00,,---,0.00,VWS V14.01,2013-02-28 07:33:00,
2013-02-28 02:38:00,38.8,35.8,29.58,NW,321,0.0,2.0,89,0.00,,---,0.00,VWS V14.01,2013-02-28 07:38:00,
2013-02-28 02:43:00,38.7,35.7,29.58,NW,321,0.0,2.0,89,0.00,,---,0.00,VWS V14.01,2013-02-28 07:43:00,
2013-02-28 02:48:00,38.6,35.6,29.58,NW,321,0.0,2.0,89,0.00,,---,0.00,VWS V14.01,2013-02-28 07:48:00,
2013-02-28 02:53:00,38.6,35.6,29.58,NW,321,0.0,2.0,89,0.00,,---,0.00,VWS V14.01,2013-02-28 07:53:00,
2013-02-28 02:58:00,38.5,35.5,29.58,NW,321,0.0,2.0,89,0.00,,---,0.00,VWS V14.01,2013-02-28 07:58:00,
2013-02-28 03:00:00,38.2,35.2,29.58,NW,321,0.0,2.0,89,0.00,,---,0.00,VWS V14.01,2013-02-28 08:00:00,
2013-02-28 03:03:00,38.4,35.5,29.58,NW,321,0.0,2.0,89,0.00,,---,0.00,VWS V14.01,2013-02-28 08:03:00,
2013-02-28 03:08:00,38.3,35.3,29.58,NW,321,0.0,2.0,89,0.00,,---,0.00,VWS V14.01,2013-02-28 08:08:00,
2013-02-28 03:13:00,38.5,35.5,29.58,NW,321,0.0,2.0,89,0.00,,---,0.00,VWS V14.01,2013-02-28 08:13:00,
2013-02-28 03:18:00,38.5,35.5,29.58,NW,321,0.0,2.0,89,0.00,,---,0.00,VWS V14.01,2013-02-28 08:18:00,
2013-02-28 03:23:00,38.3,35.3,29.58,NW,321,1.0,2.0,89,0.00,,---,0.00,VWS V14.01,2013-02-28 08:23:00,
2013-02-28 03:28:00,38.1,35.2,29.58,NW,321,0.0,2.0,89,0.00,,---,0.00,VWS V14.01,2013-02-28 08:28:00,
2013-02-28 03:30:00,37.7,35.0,29.58,NW,321,0.0,1.0,90,0.00,,---,0.00,VWS V14.01,2013-02-28 08:30:00,
2013-02-28 03:33:00,38.0,35.3,29.58,NW,321,0.0,1.0,90,0.00,,---,0.00,VWS V14.01,2013-02-28 08:33:00,
2013-02-28 03:38:00,38.1,35.2,29.58,NW,321,0.0,1.0,89,0.00,,---,0.00,VWS V14.01,2013-02-28 08:38:00,
2013-02-28 03:43:00,38.1,35.2,29.58,NW,321,0.0,1.0,89,0.00,,---,0.00,VWS V14.01,2013-02-28 08:43:00,
2013-02-28 03:49:00,38.1,35.2,29.58,NW,321,0.0,1.0,89,0.00,,---,0.00,VWS V14.01,2013-02-28 08:49:00,
2013-02-28 03:54:00,38.2,35.2,29.58,NW,321,0.0,2.0,89,0.00,,---,0.00,VWS V14.01,2013-02-28 08:54:00,
2013-02-28 03:59:00,38.2,35.2,29.58,NW,321,0.0,2.0,89,0.00,,---,0.00,VWS V14.01,2013-02-28 08:59:00,
2013-02-28 04:00:00,37.7,35.0,29.59,NW,321,0.0,1.0,90,0.00,,---,0.00,VWS V14.01,2013-02-28 09:00:00,
2013-02-28 04:04:00,38.1,35.2,29.58,NW,321,1.0,1.0,89,0.00,,---,0.00,VWS V14.01,2013-02-28 09:04:00,
2013-02-28 04:09:00,38.0,35.0,29.58,NW,321,0.0,1.0,89,0.00,,---,0.00,VWS V14.01,2013-02-28 09:09:00,
2013-02-28 04:14:00,37.9,35.2,29.58,NW,321,0.0,1.0,90,0.00,,---,0.00,VWS V14.01,2013-02-28 09:14:00,
2013-02-28 04:19:00,37.9,35.2,29.58,NW,321,0.0,1.0,90,0.00,,---,0.00,VWS V14.01,2013-02-28 09:19:00,
2013-02-28 04:24:00,37.8,35.1,29.58,NW,321,0.0,1.0,90,0.00,,---,0.00,VWS V14.01,2013-02-28 09:24:00,
2013-02-28 04:29:00,37.8,35.1,29.58,NW,321,0.0,1.0,90,0.00,,---,0.00,VWS V14.01,2013-02-28 09:29:00,
2013-02-28 04:30:00,37.5,34.8,29.58,NW,321,0.0,2.0,90,0.00,,---,0.00,VWS V14.01,2013-02-28 09:30:00,
2013-02-28 04:34:00,37.8,35.1,29.58,NW,321,0.0,1.0,90,0.00,,---,0.00,VWS V14.01,2013-02-28 09:34:00,
2013-02-28 04:39:00,37.9,35.2,29.58,NW,321,0.0,1.0,90,0.00,,---,0.00,VWS V14.01,2013-02-28 09:39:00,
2013-02-28 04:44:00,37.8,35.1,29.58,NW,321,0.0,1.0,90,0.00,,---,0.00,VWS V14.01,2013-02-28 09:44:00,
2013-02-28 04:49:00,37.8,35.1,29.58,NW,321,0.0,1.0,90,0.00,,---,0.00,VWS V14.01,2013-02-28 09:49:00,
2013-02-28 04:54:00,37.7,35.0,29.58,NW,321,0.0,1.0,90,0.00,,---,0.00,VWS V14.01,2013-02-28 09:54:00,
2013-02-28 04:59:00,37.7,35.0,29.59,NW,321,0.0,1.0,90,0.00,,---,0.00,VWS V14.01,2013-02-28 09:59:00,
2013-02-28 05:00:00,37.0,34.6,29.58,NW,321,0.0,2.0,91,0.00,,---,0.00,VWS V14.01,2013-02-28 10:00:00,
2013-02-28 05:04:00,37.7,35.0,29.58,NW,321,0.0,2.0,90,0.00,,---,0.00,VWS V14.01,2013-02-28 10:04:00,
2013-02-28 05:09:00,37.7,35.0,29.59,NW,321,0.0,2.0,90,0.00,,---,0.00,VWS V14.01,2013-02-28 10:09:00,
2013-02-28 05:15:00,37.6,34.9,29.59,NW,321,0.0,2.0,90,0.00,,---,0.00,VWS V14.01,2013-02-28 10:15:00,
2013-02-28 05:20:00,37.6,34.9,29.58,NW,321,0.0,2.0,90,0.00,,---,0.00,VWS V14.01,2013-02-28 10:20:00,
2013-02-28 05:25:00,37.5,34.8,29.58,NW,321,0.0,2.0,90,0.00,,---,0.00,VWS V14.01,2013-02-28 10:25:00,
2013-02-28 05:30:00,37.5,34.8,29.58,NW,321,0.0,2.0,90,0.00,,---,0.00,VWS V14.01,2013-02-28 10:30:00,
2013-02-28 05:35:00,37.4,34.7,29.58,NW,321,0.0,1.0,90,0.00,,---,0.00,VWS V14.01,2013-02-28 10:35:00,
2013-02-28 05:40:00,37.4,34.7,29.58,NW,321,0.0,2.0,90,0.00,,---,0.00,VWS V14.01,2013-02-28 10:40:00,
2013-02-28 05:45:00,37.4,34.7,29.58,NW,321,0.0,2.0,90,0.00,,---,0.00,VWS V14.01,2013-02-28 10:45:00,
2013-02-28 05:50:00,37.2,34.5,29.58,NW,321,0.0,2.0,90,0.00,,---,0.00,VWS V14.01,2013-02-28 10:50:00,
2013-02-28 05:55:00,37.0,34.3,29.58,NW,321,0.0,2.0,90,0.00,,---,0.00,VWS V14.01,2013-02-28 10:55:00,
2013-02-28 06:00:00,37.0,34.6,29.58,NW,321,0.0,0.0,91,0.00,,---,0.00,VWS V14.01,2013-02-28 11:00:00,
2013-02-28 06:05:00,36.9,34.5,29.59,NW,321,0.0,0.0,91,0.00,,---,0.00,VWS V14.01,2013-02-28 11:05:00,
2013-02-28 06:11:00,36.9,34.5,29.59,NW,321,0.0,1.0,91,0.00,,---,0.00,VWS V14.01,2013-02-28 11:11:00,
2013-02-28 06:16:00,36.7,34.3,29.59,NW,321,0.0,1.0,91,0.00,,---,0.00,VWS V14.01,2013-02-28 11:16:00,
2013-02-28 06:21:00,36.6,34.2,29.59,NW,321,0.0,2.0,91,0.00,,---,0.00,VWS V14.01,2013-02-28 11:21:00,
2013-02-28 06:26:00,36.6,34.2,29.58,NW,321,0.0,3.0,91,0.00,,---,0.00,VWS V14.01,2013-02-28 11:26:00,
2013-02-28 06:30:00,35.5,33.1,29.59,WNW,294,1.0,5.0,91,0.00,,---,0.00,VWS V14.01,2013-02-28 11:30:00,
2013-02-28 06:31:00,36.4,34.3,29.58,NW,321,0.0,0.0,92,0.00,,---,0.00,VWS V14.01,2013-02-28 11:31:00,
2013-02-28 06:36:00,36.3,34.2,29.59,NW,321,0.0,0.0,92,0.00,,---,0.00,VWS V14.01,2013-02-28 11:36:00,
2013-02-28 06:41:00,36.2,34.1,29.59,NW,321,0.0,1.0,92,0.00,,---,0.00,VWS V14.01,2013-02-28 11:41:00,
2013-02-28 06:46:00,36.1,34.0,29.58,NW,321,0.0,2.0,92,0.00,,---,0.00,VWS V14.01,2013-02-28 11:46:00,
2013-02-28 06:51:00,36.0,33.9,29.58,NW,321,0.0,2.0,92,0.00,,---,0.00,VWS V14.01,2013-02-28 11:51:00,
2013-02-28 06:56:00,35.9,33.8,29.58,NW,321,0.0,2.0,92,0.00,,---,0.00,VWS V14.01,2013-02-28 11:56:00,
2013-02-28 07:01:00,35.8,34.0,29.58,NW,321,1.0,2.0,93,0.00,,---,0.00,VWS V14.01,2013-02-28 12:01:00,
2013-02-28 07:06:00,35.7,33.9,29.58,NW,321,2.0,2.0,93,0.00,,---,0.00,VWS V14.01,2013-02-28 12:06:00,
2013-02-28 07:11:00,35.6,33.8,29.58,WSW,250,0.0,5.0,93,0.00,,---,0.00,VWS V14.01,2013-02-28 12:11:00,
2013-02-28 07:16:00,35.6,33.5,29.59,WSW,250,0.0,5.0,92,0.00,,---,0.00,VWS V14.01,2013-02-28 12:16:00,
2013-02-28 07:22:00,35.6,33.5,29.59,West,277,0.0,5.0,92,0.00,,---,0.00,VWS V14.01,2013-02-28 12:22:00,
2013-02-28 07:27:00,35.5,33.4,29.59,WNW,294,2.0,5.0,92,0.00,,---,0.00,VWS V14.01,2013-02-28 12:27:00,
2013-02-28 07:32:00,35.5,33.1,29.59,WNW,294,0.0,3.0,91,0.00,,---,0.00,VWS V14.01,2013-02-28 12:32:00,
2013-02-28 07:37:00,35.5,33.1,29.59,WNW,291,1.0,3.0,91,0.00,,---,0.00,VWS V14.01,2013-02-28 12:37:00,
2013-02-28 07:42:00,35.6,33.2,29.60,NNW,340,0.0,4.0,91,0.00,,---,0.00,VWS V14.01,2013-02-28 12:42:00,
2013-02-28 07:47:00,35.7,33.1,29.60,WNW,284,0.0,4.0,90,0.00,,---,0.00,VWS V14.01,2013-02-28 12:47:00,
2013-02-28 07:52:00,35.8,33.2,29.60,West,272,0.0,4.0,90,0.00,,---,0.00,VWS V14.01,2013-02-28 12:52:00,
2013-02-28 07:57:00,35.9,33.3,29.60,West,272,0.0,4.0,90,0.00,,---,0.00,VWS V14.01,2013-02-28 12:57:00,
2013-02-28 08:00:00,37.0,33.5,29.60,WNW,288,0.0,4.0,87,0.00,,---,0.00,VWS V14.01,2013-02-28 13:00:00,
2013-02-28 08:02:00,36.0,33.4,29.60,West,272,1.0,3.0,90,0.00,,---,0.00,VWS V14.01,2013-02-28 13:02:00,
2013-02-28 08:07:00,36.1,33.5,29.60,West,268,2.0,4.0,90,0.00,,---,0.00,VWS V14.01,2013-02-28 13:07:00,
2013-02-28 08:12:00,36.1,33.5,29.60,West,271,0.0,4.0,90,0.00,,---,0.00,VWS V14.01,2013-02-28 13:12:00,
2013-02-28 08:18:00,36.1,33.2,29.60,NW,324,0.0,4.0,89,0.00,,---,0.00,VWS V14.01,2013-02-28 13:18:00,
2013-02-28 08:23:00,36.1,33.2,29.61,WSW,258,0.0,4.0,89,0.00,,---,0.00,VWS V14.01,2013-02-28 13:23:00,
2013-02-28 08:28:00,36.2,33.3,29.60,WSW,258,0.0,4.0,89,0.00,,---,0.00,VWS V14.01,2013-02-28 13:28:00,
2013-02-28 08:33:00,36.2,33.6,29.60,WSW,258,0.0,2.0,90,0.00,,---,0.00,VWS V14.01,2013-02-28 13:33:00,
2013-02-28 08:38:00,36.3,33.4,29.60,WSW,258,0.0,4.0,89,0.00,,---,0.00,VWS V14.01,2013-02-28 13:38:00,
2013-02-28 08:43:00,36.4,33.5,29.60,WSW,258,0.0,4.0,89,0.00,,---,0.00,VWS V14.01,2013-02-28 13:43:00,
2013-02-28 08:48:00,36.6,33.4,29.60,WSW,258,0.0,4.0,88,0.00,,---,0.00,VWS V14.01,2013-02-28 13:48:00,
2013-02-28 08:53:00,36.8,33.6,29.60,WSW,258,0.0,4.0,88,0.00,,---,0.00,VWS V14.01,2013-02-28 13:53:00,
2013-02-28 08:58:00,36.9,33.4,29.60,WNW,288,0.0,4.0,87,0.00,,---,0.00,VWS V14.01,2013-02-28 13:58:00,
2013-02-28 09:00:00,38.6,33.3,29.59,West,261,1.0,5.0,81,0.00,,---,0.00,VWS V14.01,2013-02-28 14:00:00,
2013-02-28 09:03:00,37.1,33.6,29.60,WNW,288,2.0,2.0,87,0.00,,---,0.00,VWS V14.01,2013-02-28 14:03:00,
2013-02-28 09:09:00,37.1,33.3,29.60,WNW,288,0.0,2.0,86,0.00,,---,0.00,VWS V14.01,2013-02-28 14:09:00,
2013-02-28 09:14:00,37.3,33.5,29.60,WNW,288,0.0,2.0,86,0.00,,---,0.00,VWS V14.01,2013-02-28 14:14:00,
2013-02-28 09:19:00,37.5,33.1,29.60,West,279,0.0,3.0,84,0.00,,---,0.00,VWS V14.01,2013-02-28 14:19:00,
2013-02-28 09:24:00,37.7,33.3,29.60,West,279,1.0,3.0,84,0.00,,---,0.00,VWS V14.01,2013-02-28 14:24:00,
2013-02-28 09:29:00,37.7,33.3,29.60,West,279,0.0,3.0,84,0.00,,---,0.00,VWS V14.01,2013-02-28 14:29:00,
2013-02-28 09:30:00,39.2,33.2,29.58,WSW,258,2.0,6.0,79,0.00,,---,0.00,VWS V14.01,2013-02-28 14:30:00,
2013-02-28 09:34:00,37.9,33.5,29.60,NW,312,0.0,3.0,84,0.00,,---,0.00,VWS V14.01,2013-02-28 14:34:00,
2013-02-28 09:39:00,37.9,33.5,29.60,WNW,284,2.0,4.0,84,0.00,,---,0.00,VWS V14.01,2013-02-28 14:39:00,
2013-02-28 09:44:00,38.0,33.0,29.60,WSW,251,1.0,5.0,82,0.00,,---,0.00,VWS V14.01,2013-02-28 14:44:00,
2013-02-28 09:49:00,38.3,33.6,29.59,SW,229,0.0,5.0,83,0.00,,---,0.00,VWS V14.01,2013-02-28 14:49:00,
2013-02-28 09:54:00,38.5,33.8,29.59,NW,316,0.0,5.0,83,0.00,,---,0.00,VWS V14.01,2013-02-28 14:54:00,
2013-02-28 09:59:00,38.6,33.3,29.59,WNW,288,2.0,5.0,81,0.00,,---,0.00,VWS V14.01,2013-02-28 14:59:00,
2013-02-28 10:00:00,40.4,34.7,29.58,SW,231,1.0,6.0,80,0.00,,---,0.00,VWS V14.01,2013-02-28 15:00:00,
2013-02-28 10:04:00,38.8,34.1,29.59,NW,323,2.0,3.0,83,0.00,,---,0.00,VWS V14.01,2013-02-28 15:04:00,
2013-02-28 10:10:00,39.0,33.7,29.59,NNW,332,0.0,4.0,81,0.00,,---,0.00,VWS V14.01,2013-02-28 15:10:00,
2013-02-28 10:15:00,39.0,33.7,29.59,West,264,2.0,5.0,81,0.00,,---,0.00,VWS V14.01,2013-02-28 15:15:00,
2013-02-28 10:20:00,39.1,33.8,29.59,West,264,2.0,5.0,81,0.00,,---,0.00,VWS V14.01,2013-02-28 15:20:00,
2013-02-28 10:25:00,39.3,34.0,29.58,West,264,0.0,5.0,81,0.00,,---,0.00,VWS V14.01,2013-02-28 15:25:00,
2013-02-28 10:30:00,39.3,33.3,29.58,WSW,258,4.0,6.0,79,0.00,,---,0.00,VWS V14.01,2013-02-28 15:30:00,
2013-02-28 10:35:00,39.4,33.4,29.58,WNW,286,3.0,4.0,79,0.00,,---,0.00,VWS V14.01,2013-02-28 15:35:00,
2013-02-28 10:40:00,39.6,33.6,29.57,West,265,0.0,6.0,79,0.00,,---,0.00,VWS V14.01,2013-02-28 15:40:00,
2013-02-28 10:45:00,39.9,33.9,29.57,WSW,253,1.0,6.0,79,0.00,,---,0.00,VWS V14.01,2013-02-28 15:45:00,
2013-02-28 10:50:00,40.3,34.6,29.58,NNW,335,0.0,6.0,80,0.00,,---,0.00,VWS V14.01,2013-02-28 15:50:00,
2013-02-28 10:55:00,40.3,34.3,29.58,SW,229,5.0,6.0,79,0.00,,---,0.00,VWS V14.01,2013-02-28 15:55:00,
2013-02-28 11:00:00,40.4,34.7,29.58,SW,231,0.0,1.0,80,0.00,,---,0.00,VWS V14.01,2013-02-28 16:00:00,
2013-02-28 11:05:00,40.3,34.6,29.58,NNW,338,0.0,5.0,80,0.00,,---,0.00,VWS V14.01,2013-02-28 16:05:00,
2013-02-28 11:10:00,40.1,34.1,29.58,WNW,284,1.0,5.0,79,0.00,,---,0.00,VWS V14.01,2013-02-28 16:10:00,
2013-02-28 11:15:00,40.0,34.0,29.58,WNW,284,0.0,5.0,79,0.00,,---,0.00,VWS V14.01,2013-02-28 16:15:00,
2013-02-28 11:20:00,40.7,34.4,29.57,WSW,241,7.0,9.0,78,0.00,,---,0.00,VWS V14.01,2013-02-28 16:20:00,
2013-02-28 11:26:00,40.9,33.6,29.57,NW,313,4.0,9.0,75,0.00,,---,0.00,VWS V14.01,2013-02-28 16:26:00,
2013-02-28 11:31:00,40.9,33.3,29.57,West,277,0.0,4.0,74,0.00,,---,0.00,VWS V14.01,2013-02-28 16:31:00,
2013-02-28 11:36:00,41.1,33.8,29.57,WSW,252,1.0,6.0,75,0.00,,---,0.00,VWS V14.01,2013-02-28 16:36:00,
2013-02-28 11:41:00,41.2,34.2,29.57,WSW,242,2.0,6.0,76,0.00,,---,0.00,VWS V14.01,2013-02-28 16:41:00,
2013-02-28 11:46:00,41.4,34.4,29.57,West,264,2.0,6.0,76,0.00,,---,0.00,VWS V14.01,2013-02-28 16:46:00,
2013-02-28 11:51:00,41.1,34.1,29.57,SW,223,1.0,6.0,76,0.00,,---,0.00,VWS V14.01,2013-02-28 16:51:00,
2013-02-28 11:56:00,41.1,33.8,29.56,West,271,0.0,6.0,75,0.00,,---,0.00,VWS V14.01,2013-02-28 16:56:00,
2013-02-28 12:01:00,41.3,34.0,29.56,NNW,333,0.0,3.0,75,0.00,,---,0.00,VWS V14.01,2013-02-28 17:01:00,
2013-02-28 12:06:00,41.4,33.8,29.56,West,276,1.0,5.0,74,0.00,,---,0.00,VWS V14.01,2013-02-28 17:06:00,
2013-02-28 12:11:00,41.4,34.1,29.56,SW,222,5.0,5.0,75,0.00,,---,0.00,VWS V14.01,2013-02-28 17:11:00,
2013-02-28 12:17:00,41.3,34.3,29.56,WNW,288,2.0,5.0,76,0.00,,---,0.00,VWS V14.01,2013-02-28 17:17:00,
2013-02-28 12:22:00,41.0,33.4,29.56,West,273,0.0,9.0,74,0.00,,---,0.00,VWS V14.01,2013-02-28 17:22:00,
2013-02-28 12:27:00,40.6,33.0,29.55,NW,315,1.0,9.0,74,0.00,,---,0.00,VWS V14.01,2013-02-28 17:27:00,
2013-02-28 12:32:00,40.6,33.0,29.55,NW,318,3.0,4.0,74,0.00,,---,0.00,VWS V14.01,2013-02-28 17:32:00,
2013-02-28 12:37:00,40.8,33.5,29.55,SW,219,2.0,4.0,75,0.00,,---,0.00,VWS V14.01,2013-02-28 17:37:00,
2013-02-28 12:42:00,41.2,33.9,29.55,WSW,240,0.0,4.0,75,0.00,,---,0.00,VWS V14.01,2013-02-28 17:42:00,
2013-02-28 12:47:00,41.2,33.9,29.55,WNW,302,0.0,4.0,75,0.00,,---,0.00,VWS V14.01,2013-02-28 17:47:00,
2013-02-28 12:52:00,41.0,32.3,29.55,WNW,285,3.0,5.0,71,0.00,,---,0.00,VWS V14.01,2013-02-28 17:52:00,
2013-02-28 12:57:00,40.6,32.3,29.55,West,264,0.0,5.0,72,0.00,,---,0.00,VWS V14.01,2013-02-28 17:57:00,
2013-02-28 13:02:00,40.5,32.9,29.55,NW,323,2.0,2.0,74,0.00,,---,0.00,VWS V14.01,2013-02-28 18:02:00,
2013-02-28 13:07:00,40.5,32.9,29.55,WNW,296,0.0,5.0,74,0.00,,---,0.00,VWS V14.01,2013-02-28 18:07:00,
2013-02-28 13:12:00,40.6,33.3,29.55,WNW,296,0.0,5.0,75,0.00,,---,0.00,VWS V14.01,2013-02-28 18:12:00,
2013-02-28 13:18:00,40.5,32.5,29.55,West,261,3.0,5.0,73,0.00,,---,0.00,VWS V14.01,2013-02-28 18:18:00,
2013-02-28 13:23:00,40.5,32.9,29.55,NW,312,0.0,5.0,74,0.00,,---,0.00,VWS V14.01,2013-02-28 18:23:00,
2013-02-28 13:28:00,40.6,33.0,29.55,NW,308,0.0,5.0,74,0.00,,---,0.00,VWS V14.01,2013-02-28 18:28:00,
2013-02-28 13:30:00,39.9,31.6,29.56,NW,325,2.0,5.0,72,0.00,,---,0.00,VWS V14.01,2013-02-28 18:30:00,
2013-02-28 13:33:00,40.7,32.7,29.55,NW,316,0.0,2.0,73,0.00,,---,0.00,VWS V14.01,2013-02-28 18:33:00,
2013-02-28 13:38:00,40.8,33.2,29.55,WNW,293,0.0,2.0,74,0.00,,---,0.00,VWS V14.01,2013-02-28 18:38:00,
2013-02-28 13:43:00,40.9,33.6,29.55,WNW,293,1.0,2.0,75,0.00,,---,0.00,VWS V14.01,2013-02-28 18:43:00,
2013-02-28 13:48:00,40.9,32.9,29.55,WNW,288,0.0,3.0,73,0.00,,---,0.00,VWS V14.01,2013-02-28 18:48:00,
2013-02-28 13:53:00,41.0,33.0,29.55,WNW,294,1.0,3.0,73,0.00,,---,0.00,VWS V14.01,2013-02-28 18:53:00,
2013-02-28 13:58:00,40.8,32.1,29.55,SSW,209,2.0,4.0,71,0.00,,---,0.00,VWS V14.01,2013-02-28 18:58:00,
2013-02-28 14:00:00,39.3,31.4,29.56,NW,311,3.0,7.0,73,0.00,,---,0.00,VWS V14.01,2013-02-28 19:00:00,
2013-02-28 14:03:00,40.6,32.0,29.55,West,280,4.0,4.0,71,0.00,,---,0.00,VWS V14.01,2013-02-28 19:03:00,
2013-02-28 14:09:00,40.4,31.4,29.55,West,265,3.0,5.0,70,0.00,,---,0.00,VWS V14.01,2013-02-28 19:09:00,
2013-02-28 14:14:00,40.3,31.3,29.55,WSW,257,0.0,5.0,70,0.00,,---,0.00,VWS V14.01,2013-02-28 19:14:00,
2013-02-28 14:19:00,40.1,31.5,29.55,West,277,3.0,5.0,71,0.00,,---,0.00,VWS V14.01,2013-02-28 19:19:00,
2013-02-28 14:24:00,40.0,31.4,29.56,WSW,250,2.0,5.0,71,0.00,,---,0.00,VWS V14.01,2013-02-28 19:24:00,
2013-02-28 14:29:00,40.0,31.7,29.56,WNW,295,0.0,5.0,72,0.00,,---,0.00,VWS V14.01,2013-02-28 19:29:00,
2013-02-28 14:30:00,39.3,31.0,29.55,NW,306,0.0,5.0,72,0.00,,---,0.00,VWS V14.01,2013-02-28 19:30:00,
2013-02-28 14:34:00,39.8,31.5,29.56,NW,310,0.0,3.0,72,0.00,,---,0.00,VWS V14.01,2013-02-28 19:34:00,
2013-02-28 14:39:00,39.7,31.8,29.55,West,271,3.0,4.0,73,0.00,,---,0.00,VWS V14.01,2013-02-28 19:39:00,
2013-02-28 14:44:00,39.6,32.0,29.55,WNW,296,2.0,4.0,74,0.00,,---,0.00,VWS V14.01,2013-02-28 19:44:00,
2013-02-28 14:49:00,39.4,31.8,29.56,WNW,300,0.0,7.0,74,0.00,,---,0.00,VWS V14.01,2013-02-28 19:49:00,
2013-02-28 14:54:00,39.3,31.7,29.56,NW,318,0.0,7.0,74,0.00,,---,0.00,VWS V14.01,2013-02-28 19:54:00,
2013-02-28 15:00:00,39.3,31.4,29.56,NW,311,1.0,7.0,73,0.00,,---,0.00,VWS V14.01,2013-02-28 20:00:00,
2013-02-28 15:05:00,39.3,31.0,29.56,West,268,0.0,4.0,72,0.00,,---,0.00,VWS V14.01,2013-02-28 20:05:00,
2013-02-28 15:10:00,39.4,31.1,29.56,West,268,1.0,4.0,72,0.00,,---,0.00,VWS V14.01,2013-02-28 20:10:00,
2013-02-28 15:15:00,39.3,31.4,29.55,WSW,257,2.0,5.0,73,0.00,,---,0.00,VWS V14.01,2013-02-28 20:15:00,
2013-02-28 15:20:00,39.2,31.3,29.55,SW,224,3.0,5.0,73,0.00,,---,0.00,VWS V14.01,2013-02-28 20:20:00,
2013-02-28 15:25:00,39.2,31.6,29.55,SW,229,0.0,5.0,74,0.00,,---,0.00,VWS V14.01,2013-02-28 20:25:00,
2013-02-28 15:30:00,39.3,30.7,29.55,NW,306,0.0,0.0,71,0.00,,---,0.00,VWS V14.01,2013-02-28 20:30:00,
2013-02-28 15:35:00,39.4,30.1,29.55,WSW,242,0.0,4.0,69,0.00,,---,0.00,VWS V14.01,2013-02-28 20:35:00,
2013-02-28 15:41:00,39.4,30.1,29.54,West,268,0.0,5.0,69,0.00,,---,0.00,VWS V14.01,2013-02-28 20:41:00,
2013-02-28 15:46:00,39.5,29.8,29.54,WNW,295,3.0,5.0,68,0.00,,---,0.00,VWS V14.01,2013-02-28 20:46:00,
2013-02-28 15:51:00,39.5,30.9,29.54,NNW,331,4.0,5.0,71,0.00,,---,0.00,VWS V14.01,2013-02-28 20:51:00,
2013-02-28 15:56:00,39.5,30.2,29.54,West,273,0.0,5.0,69,0.00,,---,0.00,VWS V14.01,2013-02-28 20:56:00,
2013-02-28 16:01:00,39.6,31.0,29.54,WNW,284,1.0,1.0,71,0.00,,---,0.00,VWS V14.01,2013-02-28 21:01:00,
2013-02-28 16:06:00,40.0,31.0,29.55,SW,219,4.0,5.0,70,0.00,,---,0.00,VWS V14.01,2013-02-28 21:06:00,
2013-02-28 16:11:00,40.2,31.2,29.54,WSW,248,3.0,5.0,70,0.00,,---,0.00,VWS V14.01,2013-02-28 21:11:00,
2013-02-28 16:16:00,40.1,30.8,29.54,NW,311,1.0,5.0,69,0.00,,---,0.00,VWS V14.01,2013-02-28 21:16:00,
2013-02-28 16:21:00,40.1,31.1,29.54,SW,236,1.0,5.0,70,0.00,,---,0.00,VWS V14.01,2013-02-28 21:21:00,
2013-02-28 16:26:00,40.1,31.1,29.55,West,278,1.0,5.0,70,0.00,,---,0.00,VWS V14.01,2013-02-28 21:26:00,
2013-02-28 16:31:00,40.0,31.0,29.54,WSW,242,4.0,5.0,70,0.00,,---,0.00,VWS V14.01,2013-02-28 21:31:00,
2013-02-28 16:36:00,39.8,31.2,29.55,West,269,2.0,5.0,71,0.00,,---,0.00,VWS V14.01,2013-02-28 21:36:00,
2013-02-28 16:41:00,39.4,30.4,29.55,West,281,2.0,6.0,70,0.00,,---,0.00,VWS V14.01,2013-02-28 21:41:00,
2013-02-28 16:46:00,39.3,30.7,29.55,NW,318,2.0,6.0,71,0.00,,---,0.00,VWS V14.01,2013-02-28 21:46:00,
2013-02-28 16:52:00,39.0,30.8,29.55,West,275,4.0,6.0,72,0.00,,---,0.00,VWS V14.01,2013-02-28 21:52:00,
2013-02-28 16:57:00,38.8,30.6,29.55,West,270,0.0,6.0,72,0.00,,---,0.00,VWS V14.01,2013-02-28 21:57:00,
2013-02-28 17:00:00,37.2,30.3,29.57,West,265,2.0,5.0,76,0.00,,---,0.00,VWS V14.01,2013-02-28 22:00:00,
2013-02-28 17:02:00,38.6,30.4,29.55,WNW,296,2.0,2.0,72,0.00,,---,0.00,VWS V14.01,2013-02-28 22:02:00,
2013-02-28 17:07:00,38.4,30.2,29.55,WSW,244,1.0,6.0,72,0.00,,---,0.00,VWS V14.01,2013-02-28 22:07:00,
2013-02-28 17:12:00,38.3,30.1,29.56,West,265,4.0,6.0,72,0.00,,---,0.00,VWS V14.01,2013-02-28 22:12:00,
2013-02-28 17:17:00,38.1,29.9,29.56,WSW,245,3.0,6.0,72,0.00,,---,0.00,VWS V14.01,2013-02-28 22:17:00,
2013-02-28 17:22:00,37.9,29.7,29.56,West,263,2.0,6.0,72,0.00,,---,0.00,VWS V14.01,2013-02-28 22:22:00,
2013-02-28 17:27:00,37.8,29.9,29.56,West,271,5.0,6.0,73,0.00,,---,0.00,VWS V14.01,2013-02-28 22:27:00,
2013-02-28 17:30:00,36.9,30.4,29.58,WNW,283,0.0,5.0,77,0.00,,---,0.00,VWS V14.01,2013-02-28 22:30:00,
2013-02-28 17:32:00,37.7,30.2,29.56,WSW,251,0.0,5.0,74,0.00,,---,0.00,VWS V14.01,2013-02-28 22:32:00,
2013-02-28 17:37:00,37.5,30.0,29.56,NW,307,0.0,5.0,74,0.00,,---,0.00,VWS V14.01,2013-02-28 22:37:00,
2013-02-28 17:42:00,37.3,30.1,29.56,WNW,290,1.0,5.0,75,0.00,,---,0.00,VWS V14.01,2013-02-28 22:42:00,
2013-02-28 17:47:00,37.3,30.4,29.56,WNW,288,0.0,5.0,76,0.00,,---,0.00,VWS V14.01,2013-02-28 22:47:00,
2013-02-28 17:52:00,37.1,30.2,29.57,WNW,285,2.0,5.0,76,0.00,,---,0.00,VWS V14.01,2013-02-28 22:52:00,
2013-02-28 17:57:00,37.2,30.4,29.57,West,264,2.0,5.0,76,0.00,,---,0.00,VWS V14.01,2013-02-28 22:57:00,
2013-02-28 18:00:00,36.4,30.8,29.59,WSW,247,2.0,5.0,80,0.00,,---,0.00,VWS V14.01,2013-02-28 23:00:00,
2013-02-28 18:03:00,37.2,30.4,29.58,WNW,296,0.0,5.0,76,0.00,,---,0.00,VWS V14.01,2013-02-28 23:03:00,
2013-02-28 18:08:00,37.1,30.2,29.58,West,268,2.0,5.0,76,0.00,,---,0.00,VWS V14.01,2013-02-28 23:08:00,
2013-02-28 18:13:00,37.0,30.5,29.58,West,278,1.0,5.0,77,0.00,,---,0.00,VWS V14.01,2013-02-28 23:13:00,
2013-02-28 18:18:00,37.1,30.6,29.58,West,271,0.0,5.0,77,0.00,,---,0.00,VWS V14.01,2013-02-28 23:18:00,
2013-02-28 18:23:00,37.0,30.5,29.58,WNW,284,0.0,5.0,77,0.00,,---,0.00,VWS V14.01,2013-02-28 23:23:00,
2013-02-28 18:28:00,36.9,30.4,29.58,West,269,1.0,5.0,77,0.00,,---,0.00,VWS V14.01,2013-02-28 23:28:00,
2013-02-28 18:30:00,35.9,31.0,29.60,WNW,284,0.0,5.0,82,0.00,,---,0.00,VWS V14.01,2013-02-28 23:30:00,
2013-02-28 18:33:00,36.9,30.4,29.58,WNW,283,0.0,2.0,77,0.00,,---,0.00,VWS V14.01,2013-02-28 23:33:00,
2013-02-28 18:38:00,36.8,30.3,29.59,WNW,283,0.0,2.0,77,0.00,,---,0.00,VWS V14.01,2013-02-28 23:38:00,
2013-02-28 18:43:00,36.6,30.4,29.58,WNW,283,2.0,3.0,78,0.00,,---,0.00,VWS V14.01,2013-02-28 23:43:00,
2013-02-28 18:49:00,36.5,30.3,29.59,WNW,284,5.0,5.0,78,0.00,,---,0.00,VWS V14.01,2013-02-28 23:49:00,
2013-02-28 18:54:00,36.5,30.6,29.59,WNW,302,1.0,5.0,79,0.00,,---,0.00,VWS V14.01,2013-02-28 23:54:00,
2013-02-28 18:59:00,36.4,30.8,29.59,WSW,253,1.0,5.0,80,0.00,,---,0.00,VWS V14.01,2013-02-28 23:59:00,
2013-02-28 19:00:00,35.6,30.7,29.60,West,259,3.0,5.0,82,0.00,,---,0.00,VWS V14.01,2013-03-01 00:00:00,
2013-02-28 19:04:00,36.3,30.7,29.59,West,281,0.0,5.0,80,0.00,,---,0.00,VWS V14.01,2013-03-01 00:04:00,
2013-02-28 19:09:00,36.2,30.9,29.59,WNW,289,1.0,5.0,81,0.00,,---,0.00,VWS V14.01,2013-03-01 00:09:00,
2013-02-28 19:14:00,36.2,30.9,29.59,West,259,0.0,5.0,81,0.00,,---,0.00,VWS V14.01,2013-03-01 00:14:00,
2013-02-28 19:19:00,36.1,31.1,29.60,West,278,2.0,5.0,82,0.00,,---,0.00,VWS V14.01,2013-03-01 00:19:00,
2013-02-28 19:24:00,36.0,31.0,29.60,West,278,0.0,5.0,82,0.00,,---,0.00,VWS V14.01,2013-03-01 00:24:00,
2013-02-28 19:29:00,35.9,31.0,29.60,WNW,284,0.0,5.0,82,0.00,,---,0.00,VWS V14.01,2013-03-01 00:29:00,
2013-02-28 19:30:00,34.6,30.3,29.60,NW,325,2.0,4.0,84,0.00,,---,0.00,VWS V14.01,2013-03-01 00:30:00,
2013-02-28 19:34:00,35.8,30.9,29.60,West,269,2.0,3.0,82,0.00,,---,0.00,VWS V14.01,2013-03-01 00:34:00,
2013-02-28 19:39:00,35.7,31.0,29.60,West,267,2.0,3.0,83,0.00,,---,0.00,VWS V14.01,2013-03-01 00:39:00,
2013-02-28 19:45:00,35.7,30.8,29.60,WNW,286,0.0,4.0,82,0.00,,---,0.00,VWS V14.01,2013-03-01 00:45:00,
2013-02-28 19:50:00,35.6,30.7,29.60,NW,321,0.0,4.0,82,0.00,,---,0.00,VWS V14.01,2013-03-01 00:50:00,
2013-02-28 19:55:00,35.6,30.7,29.60,NW,318,3.0,4.0,82,0.00,,---,0.00,VWS V14.01,2013-03-01 00:55:00,
2013-02-28 20:00:00,35.5,30.6,29.60,West,262,4.0,5.0,82,0.00,,---,0.00,VWS V14.01,2013-03-01 01:00:00,
2013-02-28 20:05:00,35.3,30.4,29.60,NW,310,0.0,4.0,82,0.00,,---,0.00,VWS V14.01,2013-03-01 01:05:00,
2013-02-28 20:10:00,35.1,30.5,29.60,West,267,2.0,4.0,83,0.00,,---,0.00,VWS V14.01,2013-03-01 01:10:00,
2013-02-28 20:15:00,35.0,30.4,29.60,WNW,284,1.0,4.0,83,0.00,,---,0.00,VWS V14.01,2013-03-01 01:15:00,
2013-02-28 20:20:00,35.0,30.4,29.60,North,5,0.0,4.0,83,0.00,,---,0.00,VWS V14.01,2013-03-01 01:20:00,
2013-02-28 20:25:00,34.7,30.4,29.61,WNW,283,2.0,4.0,84,0.00,,---,0.00,VWS V14.01,2013-03-01 01:25:00,
2013-02-28 20:30:00,34.6,30.3,29.61,NW,311,0.0,2.0,84,0.00,,---,0.00,VWS V14.01,2013-03-01 01:30:00,
2013-02-28 20:35:00,34.4,30.4,29.61,WNW,295,0.0,3.0,85,0.00,,---,0.00,VWS V14.01,2013-03-01 01:35:00,
2013-02-28 20:40:00,34.4,30.4,29.61,WNW,291,1.0,3.0,85,0.00,,---,0.00,VWS V14.01,2013-03-01 01:40:00,
2013-02-28 20:46:00,34.2,30.5,29.61,WNW,291,1.0,3.0,86,0.00,,---,0.00,VWS V14.01,2013-03-01 01:46:00,
2013-02-28 20:51:00,34.0,30.5,29.61,West,274,0.0,3.0,87,0.00,,---,0.00,VWS V14.01,2013-03-01 01:51:00,
2013-02-28 20:56:00,33.9,30.5,29.62,West,274,0.0,3.0,87,0.00,,---,0.00,VWS V14.01,2013-03-01 01:56:00,
2013-02-28 21:01:00,33.8,30.6,29.61,West,268,1.0,3.0,88,0.00,,---,0.00,VWS V14.01,2013-03-01 02:01:00,
2013-02-28 21:06:00,33.7,30.5,29.61,WNW,293,2.0,3.0,88,0.00,,---,0.00,VWS V14.01,2013-03-01 02:06:00,
2013-02-28 21:11:00,33.6,30.7,29.61,WNW,291,1.0,4.0,89,0.00,,---,0.00,VWS V14.01,2013-03-01 02:11:00,
2013-02-28 21:16:00,33.5,30.6,29.62,WNW,288,0.0,4.0,89,0.00,,---,0.00,VWS V14.01,2013-03-01 02:16:00,
2013-02-28 21:21:00,33.4,30.8,29.62,WNW,293,1.0,5.0,90,0.00,,---,0.00,VWS V14.01,2013-03-01 02:21:00,
2013-02-28 21:26:00,33.4,30.8,29.62,West,270,0.0,5.0,90,0.00,,---,0.00,VWS V14.01,2013-03-01 02:26:00,
2013-02-28 21:31:00,33.2,30.9,29.62,West,265,1.0,2.0,91,0.00,,---,0.00,VWS V14.01,2013-03-01 02:31:00,
2013-02-28 21:36:00,33.2,30.9,29.62,West,268,1.0,3.0,91,0.00,,---,0.00,VWS V14.01,2013-03-01 02:36:00,
2013-02-28 21:41:00,33.0,30.7,29.62,West,279,0.0,3.0,91,0.00,,---,0.00,VWS V14.01,2013-03-01 02:41:00,
2013-02-28 21:47:00,32.9,30.8,29.62,WNW,284,1.0,3.0,92,0.00,,---,0.00,VWS V14.01,2013-03-01 02:47:00,
2013-02-28 21:52:00,32.8,30.7,29.62,WNW,285,0.0,3.0,92,0.00,,---,0.00,VWS V14.01,2013-03-01 02:52:00,
2013-02-28 21:57:00,32.7,30.6,29.62,WNW,298,0.0,3.0,92,0.00,,---,0.00,VWS V14.01,2013-03-01 02:57:00,
2013-02-28 22:00:00,31.9,30.4,29.61,WNW,282,3.0,4.0,94,0.00,,---,0.00,VWS V14.01,2013-03-01 03:00:00,
2013-02-28 22:02:00,32.6,30.8,29.62,WSW,253,1.0,1.0,93,0.00,,---,0.00,VWS V14.01,2013-03-01 03:02:00,
2013-02-28 22:07:00,32.4,30.6,29.62,WSW,253,0.0,2.0,93,0.00,,---,0.00,VWS V14.01,2013-03-01 03:07:00,
2013-02-28 22:12:00,32.4,30.6,29.62,WSW,253,0.0,2.0,93,0.00,,---,0.00,VWS V14.01,2013-03-01 03:12:00,
2013-02-28 22:17:00,32.3,30.5,29.62,WNW,284,0.0,3.0,93,0.00,,---,0.00,VWS V14.01,2013-03-01 03:17:00,
2013-02-28 22:22:00,32.3,30.5,29.62,WNW,284,0.0,3.0,93,0.00,,---,0.00,VWS V14.01,2013-03-01 03:22:00,
2013-02-28 22:28:00,32.1,30.6,29.62,WNW,286,1.0,3.0,94,0.00,,---,0.00,VWS V14.01,2013-03-01 03:28:00,
2013-02-28 22:30:00,31.7,30.2,29.61,West,263,0.0,5.0,94,0.00,,---,0.00,VWS V14.01,2013-03-01 03:30:00,
2013-02-28 22:33:00,32.1,30.6,29.62,West,267,2.0,3.0,94,0.00,,---,0.00,VWS V14.01,2013-03-01 03:33:00,
2013-02-28 22:38:00,32.0,30.5,29.62,West,281,1.0,3.0,94,0.00,,---,0.00,VWS V14.01,2013-03-01 03:38:00,
2013-02-28 22:43:00,32.0,30.5,29.62,West,281,0.0,3.0,94,0.00,,---,0.00,VWS V14.01,2013-03-01 03:43:00,
2013-02-28 22:48:00,31.9,30.4,29.61,West,281,0.0,3.0,94,0.00,,---,0.00,VWS V14.01,2013-03-01 03:48:00,
2013-02-28 22:53:00,31.9,30.4,29.62,West,271,0.0,3.0,94,0.00,,---,0.00,VWS V14.01,2013-03-01 03:53:00,
2013-02-28 22:58:00,31.9,30.4,29.61,WNW,295,0.0,4.0,94,0.00,,---,0.00,VWS V14.01,2013-03-01 03:58:00,
2013-02-28 23:00:00,31.5,30.2,29.60,WNW,292,1.0,3.0,95,0.00,,---,0.00,VWS V14.01,2013-03-01 04:00:00,
2013-02-28 23:03:00,31.9,30.4,29.61,West,259,3.0,5.0,94,0.00,,---,0.00,VWS V14.01,2013-03-01 04:03:00,
2013-02-28 23:08:00,31.9,30.4,29.61,West,269,0.0,5.0,94,0.00,,---,0.00,VWS V14.01,2013-03-01 04:08:00,
2013-02-28 23:13:00,31.8,30.3,29.61,West,267,2.0,5.0,94,0.00,,---,0.00,VWS V14.01,2013-03-01 04:13:00,
2013-02-28 23:18:00,31.8,30.3,29.61,West,268,2.0,5.0,94,0.00,,---,0.00,VWS V14.01,2013-03-01 04:18:00,
2013-02-28 23:23:00,31.8,30.3,29.61,WNW,286,0.0,5.0,94,0.00,,---,0.00,VWS V14.01,2013-03-01 04:23:00,
2013-02-28 23:28:00,31.8,30.5,29.61,WNW,286,0.0,5.0,95,0.00,,---,0.00,VWS V14.01,2013-03-01 04:28:00,
2013-02-28 23:33:00,31.7,30.2,29.61,West,263,0.0,3.0,94,0.00,,---,0.00,VWS V14.01,2013-03-01 04:33:00,
2013-02-28 23:38:00,31.6,30.1,29.61,West,263,0.0,3.0,94,0.00,,---,0.00,VWS V14.01,2013-03-01 04:38:00,
2013-02-28 23:43:00,31.5,30.2,29.61,West,263,0.0,3.0,95,0.00,,---,0.00,VWS V14.01,2013-03-01 04:43:00,
2013-02-28 23:48:00,31.5,30.2,29.61,West,277,0.0,3.0,95,0.00,,---,0.00,VWS V14.01,2013-03-01 04:48:00,
2013-02-28 23:54:00,31.5,30.2,29.61,WNW,292,0.0,3.0,95,0.00,,---,0.00,VWS V14.01,2013-03-01 04:54:00,
2013-02-28 23:59:00,31.5,30.2,29.61,West,270,2.0,3.0,95,0.00,,---,0.00,VWS V14.01,2013-03-01 04:59:00,